Flag for U.S.A. Weather past 2 weeks in Anchorage, Alaska, U.S.A.

Now
39 °F

Scattered clouds.


Feels Like: 35 °F
Forecast: 34 / 47 °F
Wind: 6 mph from Northeast

Location: Lake Hood Seaplane

Current Time: Mar 27, 2015 at 11:59:18 AM

Latest Report: Mar 27, 2015 at 10:53 AM


Visibility: 10 mi

Pressure: 29.62 "Hg

Humidity: 65%

Dew point: 28 °F

Location of AnchorageLocation

Historic Weather in Anchorage — Graph

°F

Anchorage temperature yesterday

Maximum temperature yesterday: 43 °F (at 11:53 PM)
Minimum temperature yesterday: 32 °F (at 3:53 AM)
Average temperature yesterday: 37 °F

Past Weeks' High & Low Weather Summary

 TemperatureHumidityPressure
High47 °F (Mar 17, 3:53 PM)100% (Mar 18, 1:53 AM)30.02 "Hg (Mar 18, 1:53 AM)
Low0 °F (Mar 14, 5:53 AM)28% (Mar 14, 4:53 PM)29.32 "Hg (Mar 26, 7:53 AM)
Average28 °F58%29.74 "Hg
* Reported Mar 12 10:53 AM — Mar 27 10:53 AM, Anchorage, Weather by CustomWeather, © 2015

Note: Actual official high and low records may vary slightly from our data, if they occured in-between our weather recording intervals... More about our weather records

Advertising

Anchorage weather history for previous 24 hours

 ConditionsComfort  
Time TempWeatherWind HumidityBarometerVisibility
10:53 AM
Fri, Mar 27
39 °FScattered clouds.6 mph65%29.62 "Hg10 mi
9:53 AM38 °FPassing clouds.No wind65%29.62 "Hg10 mi
8:53 AM38 °FPartly sunny.No wind65%29.61 "Hg10 mi
7:53 AM38 °FPassing clouds.No wind63%29.60 "Hg10 mi
6:53 AM40 °FClear.10 mph58%29.59 "Hg10 mi
5:53 AM40 °FClear.7 mph60%29.58 "Hg10 mi
4:53 AM42 °FClear.15 mph57%29.59 "Hg10 mi
3:53 AM42 °FPassing clouds.13 mph57%29.58 "Hg10 mi
2:53 AM42 °FPassing clouds.7 mph60%29.57 "Hg10 mi
1:53 AM42 °FPassing clouds.10 mph62%29.56 "Hg10 mi
12:53 AM43 °FPassing clouds.13 mph60%29.53 "Hg10 mi
11:53 PM
Thu, Mar 26
43 °FOvercast.12 mph60%29.50 "Hg10 mi
10:53 PM40 °FMostly cloudy.7 mph65%29.49 "Hg10 mi
9:53 PM40 °FOvercast.No wind63%29.46 "Hg10 mi
8:53 PM40 °FOvercast.No wind55%29.44 "Hg10 mi
7:53 PM41 °FOvercast.No wind51%29.42 "Hg10 mi
6:53 PM40 °FOvercast.No wind53%29.40 "Hg10 mi
5:53 PM41 °FMostly cloudy.5 mph49%29.39 "Hg10 mi
4:53 PM41 °FMostly cloudy.5 mph47%29.38 "Hg10 mi
3:53 PM40 °FOvercast.No wind47%29.37 "Hg10 mi
2:53 PM39 °FPartly sunny.6 mph48%29.35 "Hg10 mi
1:53 PM39 °FPartly sunny.No wind45%29.35 "Hg10 mi
12:53 PM37 °FScattered clouds.5 mph52%29.34 "Hg10 mi
11:53 AM36 °FPartly sunny.5 mph50%29.33 "Hg10 mi
Weather by CustomWeather, © 2015

See weather overviewHow to use our weather pages